SCP
0 0 0 0 0 0 0 0 0 0 0 0 0 0 0 0 0 0 0 0 0 0 0 0 0 0 0 0 0 0 0 0 0 0 0 0 0 0 0 0 0 0 0 0
0 0 0 0 0 0 0 0 0 0 0 0 0 0 0 0 0 0 0 0 0 0 0 0 0 0 0 0 0 0 0 0 0 0 0 0 0 0 0 0 0 0 0 0
0 0 0 0 0 0 0 0 0 0 0 0 0 0 0 0 0 0 0 0 0 0 0 0 0 0 0 0 0 0 0 0 0 0 0 0 0 0 0 0 0 0 0 0
0 0 0 0 0 0 0 0 0 0 0 0 0 1 1 1 1 0 0 0 0 0 0 0 0 0 0 0 0 0 0 0 0 0 0 0 0 0 0 0 0 0 0 0
0 0 0 0 0 0 0 0 0 0 0 0 1 1 1 1 1 1 1 1 1 1 1 1 0 0 0 0 0 0 0 0 0 0 1 1 1 1 0 0 0 0 0 0
0 0 0 0 0 0 0 0 0 0 0 0 0 1 1 1 1 1 1 1 1 1 1 1 1 1 1 0 0 0 0 0 0 0 1 1 1 1 1 1 0 0 0 0
0 0 0 0 0 0 0 0 0 0 0 1 1 1 1 1 1 1 1 1 1 1 1 1 1 1 1 0 0 0 0 0 0 0 0 0 0 1 1 0 0 0 0 0
0 0 0 0 0 0 0 0 0 0 0 1 1 1 1 0 0 0 0 0 0 0 0 0 0 0 0 0 0 0 0 0 0 0 0 0 0 0 0 0 0 0 0 0
0 0 0 0 0 0 1 1 0 0 0 0 0 0 0 0 0 0 0 0 0 0 0 0 0 0 0 0 0 0 0 0 0 0 0 0 0 0 0 0 0 0 0 0
0 0 0 0 0 0 0 0 0 0 0 0 0 0 0 0 0 0 0 0 0 0 0 0 0 0 0 0 0 0 0 0 0 0 0 0 0 0 0 0 0 0 0 0
0 0 0 0 0 0 0 0 0 0 0 0 0 0 0 0 0 0 0 0 0 0 0 0 0 0 0 0 0 0 0 0 0 0 0 0 0 0 0 0 0 0 0 0
0 0 0 0 0 0 0 0 0 0 0 0 0 0 0 0 0 0 0 0 0 0 0 0 0 0 0 0 0 0 0 0 0 0 0 0 0 0 0 0 0 0 0 0
0 0 0 0 0 0 0 0 0 0 0 0 0 0 0 0 0 0 0 0 0 0 0 0 0 0 0 0 0 0 0 0 0 0 0 0 0 0 0 0 0 0 0 0
0 0 0 0 0 0 0 0 0 0 0 0 0 0 0 0 0 0 0 0 0 0 0 0 0 0 0 0 0 0 0 0 0 0 0 0 0 0 0 0 0 0 0 0
0 0 0 0 0 0 0 0 0 0 0 0 0 0 0 0 0 0 0 0 0 0 0 0 0 0 0 0 0 0 0 0 0 0 0 0 0 0 0 0 0 0 0 0
0 0 0 0 0 0 0 0 0 0 0 0 0 0 0 0 0 0 0 0 0 0 0 0 0 0 0 0 0 0 0 0 0 0 0 0 0 0 0 0 0 0 0 0
0 0 0 0 0 0 0 0 0 0 0 0 0 0 0 0 0 0 0 0 0 0 0 0 0 0 0 0 0 0 0 0 0 0 0 0 0 0 0 0 0 0 0 0
0 0 0 0 0 0 0 0 0 0 0 0 0 0 0 0 0 0 0 0 0 0 0 0 0 0 0 0 0 0 0 0 0 0 0 0 0 0 0 0 0 0 0 0
0 0 0 0 0 0 0 0 0 0 0 0 0 0 0 0 0 0 0 0 0 0 0 0 0 0 0 0 0 0 0 0 0 0 0 0 0 0 0 0 0 0 0 0
0 0 0 0 0 0 0 0 0 0 0 0 0 0 0 0 0 0 0 0 0 0 0 0 0 0 0 0 0 0 0 0 0 0 0 0 0 0 0 0 0 0 0 0
0 0 0 0 0 0 0 0 0 0 0 0 0 0 0 0 0 0 0 0 0 0 0 0 0 0 0 0 0 0 0 0 0 0 0 0 0 0 0 0 0 0 0 0
0 0 0 0 0 0 0 0 0 0 0 0 0 0 0 0 0 0 0 0 0 0 0 0 0 0 0 0 0 0 0 0 0 0 0 0 0 0 0 0 0 0 0 0
0 0 0 0 0 0 0 0 0 0 0 0 0 0 0 0 0 0 0 0 0 0 -0 0 0 0 0 0 0 0 0 0 0 0 -0 -0 -0 0 0 0 0 0 0 0
0 0 0 0 0 0 0 0 0 0 0 0 0 0 0 0 0 0 0 0 0 -0 -0 0 0 -0 -0 0 0 0 0 0 -0 -0 -0 -0 -0 0 0 0 0 0 0 0
0 0 0 0 0 0 0 0 0 0 0 0 0 0 0 0 0 0 0 0 0 -0 0 0 0 -0 -0 -0 -0 -0 0 0 0 0 0 0 0 0 0 0 0 0 0 0
0 0 0 0 0 0 0 0 0 0 0 0 0 0 0 0 0 0 0 0 0 0 0 0 0 0 0 0 0 0 0 0 0 0 0 0 0 0 0 0 0 0 0 0
0 0 0 0 0 0 0 0 0 0 0 0 0 0 0 0 0 0 0 0 0 0 0 0 0 0 0 0 0 0 0 0 0 0 0 0 0 0 0 0 0 0 0 0
Wind_Speed
10 4 7 11 12 12 13 11 9 6 5 3 3 4 4 5 6 7 8 8 8 7 7 7 7 6 6 7 7 7 8 8 8 8 7 7 7 7 7 7 8 8 8 7
10 9 9 10 10 11 11 9 9 6 3 4 5 5 5 6 6 7 7 7 7 7 7 7 7 7 7 6 7 7 7 7 7 7 8 7 7 7 7 7 7 8 8 8
10 10 10 13 12 12 10 8 9 8 2 5 5 5 4 4 5 6 6 6 6 6 6 6 7 7 7 7 7 8 7 7 7 7 8 8 8 7 7 7 7 7 7 7
8 10 15 5 2 5 7 6 5 2 3 4 5 6 5 3 4 4 4 5 5 5 5 6 6 7 7 7 7 7 7 7 7 8 8 8 7 7 7 7 7 7 7 7
9 13 11 5 5 6 7 6 4 3 4 5 7 7 6 5 4 3 3 3 4 4 5 6 6 7 7 7 7 7 7 7 7 7 8 8 8 8 7 7 7 7 7 8
9 12 11 6 6 3 5 8 4 3 4 5 6 6 6 6 4 5 4 4 3 3 5 5 6 7 8 8 7 7 6 6 6 6 8 9 9 9 8 7 8 8 9 8
11 11 6 5 5 6 9 2 5 2 3 3 2 5 7 6 5 5 5 4 4 4 4 4 5 6 7 7 7 6 7 7 7 7 8 9 9 8 9 9 9 9 11 10
10 12 7 6 4 3 4 5 3 2 3 4 7 8 7 6 5 5 5 5 4 4 4 4 4 6 6 6 6 7 8 8 8 7 7 8 9 9 9 10 11 11 11 11
3 0 7 3 2 4 2 2 2 2 3 5 6 7 6 6 5 5 5 5 4 5 6 5 4 5 7 6 7 8 9 9 8 9 7 8 8 9 9 8 8 9 9 9
2 3 3 3 2 2 2 2 2 2 3 5 6 6 6 5 5 5 5 5 5 5 6 5 5 5 6 7 8 10 10 10 9 9 9 9 7 6 7 7 8 8 9 9
4 3 2 3 3 2 3 3 3 3 4 5 6 6 6 6 5 5 5 5 5 6 6 6 6 7 7 7 10 11 11 11 11 10 11 10 10 9 8 8 6 8 8 8
2 2 1 2 3 2 2 3 3 4 5 6 6 6 6 6 5 5 6 5 6 7 8 7 7 7 7 7 9 11 11 10 9 9 9 10 11 13 19 15 18 16 13 11
2 2 1 1 2 2 2 3 3 4 5 6 6 7 7 7 6 6 6 7 7 8 8 8 8 8 7 8 10 11 11 10 9 9 10 10 10 11 12 14 18 18 16 15
1 1 2 1 1 2 3 3 4 5 6 6 6 7 8 8 8 8 7 8 8 8 9 9 9 9 8 9 11 13 12 12 11 9 9 9 9 9 10 11 11 10 12 13
3 3 2 1 2 2 3 4 6 7 7 7 7 8 9 9 9 8 8 9 9 10 10 10 10 9 9 11 12 13 11 9 9 9 9 9 9 9 10 11 11 10 10 9
3 3 3 4 4 4 5 6 7 8 7 8 9 9 10 10 10 10 9 9 10 10 10 10 10 9 9 11 12 11 11 13 11 9 9 9 9 9 9 10 10 10 9 9
5 5 5 5 5 5 6 6 7 8 9 9 10 11 12 12 12 11 10 10 10 10 10 11 11 10 10 11 11 10 11 12 13 10 9 9 9 9 9 9 9 9 8 6
4 4 3 4 5 6 7 7 8 9 9 10 11 12 12 12 12 11 11 12 12 12 11 10 10 10 11 11 10 9 9 9 9 9 9 9 9 9 8 9 9 9 9 8
4 4 4 5 6 7 8 8 9 9 10 11 12 12 12 11 12 12 12 12 12 11 10 10 10 11 11 10 9 8 9 10 10 10 9 9 8 8 8 8 8 8 7 7
5 5 6 7 8 8 9 9 10 10 10 12 13 13 12 11 11 12 11 10 8 8 9 9 10 10 10 8 6 9 9 10 10 10 9 8 8 8 8 8 8 7 7 6
7 7 8 9 9 9 10 10 11 12 12 12 13 13 12 12 11 11 10 10 9 9 10 8 7 8 8 7 6 8 9 9 9 8 8 8 8 8 7 7 7 6 6 5
8 8 10 10 11 11 10 10 12 13 13 12 13 13 13 12 11 10 9 8 9 7 7 8 8 9 8 7 8 8 9 9 8 7 7 7 7 7 7 7 6 6 5 5
8 10 11 11 12 12 12 11 12 12 12 12 12 12 12 10 8 9 8 7 8 7 6 8 10 8 5 6 7 8 9 8 7 7 7 6 6 6 6 6 5 5 5 5
10 11 12 12 13 13 13 12 12 11 12 11 11 11 11 9 8 8 8 9 8 8 8 9 9 6 4 5 6 7 7 7 6 6 6 6 5 5 5 5 5 5 5 5
12 12 13 13 12 11 12 12 12 12 12 10 11 10 8 7 8 9 9 10 10 9 9 9 7 4 4 5 6 6 5 4 4 5 5 5 5 5 5 5 4 4 4 4
10 9 9 9 9 9 9 9 9 9 9 9 8 8 8 8 10 9 8 10 11 8 8 7 7 5 5 5 6 5 5 6 6 5 5 5 5 5 4 4 5 4 3 3
10 9 8 8 8 8 8 8 8 9 9 9 9 8 8 8 8 8 9 8 8 7 6 6 5 5 5 5 5 5 5 4 4 4 5 4 4 4 4 5 3 3 3 3
Wind_Direction
247 233 208 210 202 202 219 239 246 225 222 162 143 145 139 143 148 155 159 161 161 163 162 166 166 168 174 177 175 175 177 181 182 180 178 176 173 173 171 170 169 166 165 164
219 213 214 219 213 208 219 232 243 243 218 90 113 130 137 144 151 160 164 162 162 163 167 170 171 174 175 174 173 174 179 179 172 169 166 165 165 163 158 157 156 153 155 154
215 201 207 217 216 213 213 224 238 237 192 135 140 135 134 144 150 155 159 159 164 168 170 169 173 174 176 175 172 172 172 168 164 163 160 159 154 150 150 148 144 141 143 141
215 201 224 200 143 225 222 226 244 240 137 138 123 112 95 106 129 136 149 155 160 165 164 167 167 168 170 170 168 168 167 164 161 158 153 148 142 139 139 135 132 130 128 126
219 218 217 175 177 194 208 217 211 198 155 134 129 140 111 76 75 89 102 126 143 156 156 159 162 162 159 157 158 157 158 158 159 157 151 143 137 135 132 127 124 121 117 116
225 234 228 197 141 158 224 214 158 173 166 160 186 210 112 84 66 69 71 90 115 135 141 149 158 159 157 155 154 152 150 148 145 145 144 139 134 131 125 119 116 113 108 105
226 232 232 91 124 188 224 169 99 144 159 171 123 46 93 94 78 77 80 85 99 116 128 138 150 156 155 147 144 139 134 129 126 126 128 127 124 123 122 117 112 108 102 94
227 233 213 101 175 219 50 70 88 100 120 112 99 102 104 94 85 84 84 85 95 104 103 109 129 141 138 134 130 127 124 120 117 116 118 120 120 119 119 120 115 108 102 95
248 351 70 77 49 45 51 87 89 93 112 120 121 118 108 97 90 86 87 87 91 103 99 94 106 128 132 132 128 123 117 113 111 109 105 111 116 119 118 119 117 115 112 106
205 142 105 90 91 95 84 81 79 93 117 127 127 120 113 108 103 98 92 95 99 100 97 95 95 104 113 121 120 118 115 110 106 105 99 91 90 98 109 117 121 121 117 113
216 173 166 136 89 78 90 90 95 102 114 121 119 115 114 113 110 103 97 92 97 99 97 93 96 99 106 114 118 114 111 107 103 99 98 90 78 64 75 70 88 111 114 116
234 129 211 106 93 85 98 96 98 104 105 109 112 114 114 110 108 106 102 98 98 95 94 91 92 92 98 108 116 116 112 108 106 106 103 102 98 82 61 70 71 73 80 94
23 41 23 89 99 88 97 89 98 109 115 113 110 115 116 115 112 107 104 101 99 98 97 94 93 89 92 104 109 109 110 110 109 110 111 111 111 110 104 81 69 68 74 86
212 221 214 185 124 109 111 108 107 108 107 108 110 113 115 114 110 106 101 101 101 99 95 93 93 91 95 102 104 106 106 105 108 108 110 112 114 115 115 115 109 92 78 86
229 240 238 174 156 147 143 143 134 124 120 117 117 117 117 114 108 103 102 103 102 99 97 98 95 95 102 106 107 108 108 109 109 110 111 112 113 112 111 112 112 114 116 108
222 215 202 193 183 168 164 155 143 137 132 127 121 116 113 110 107 104 103 105 104 101 101 101 99 101 108 109 109 106 105 111 115 116 115 114 115 117 118 120 120 122 124 128
213 211 205 196 183 171 160 151 144 139 134 128 123 120 118 113 109 106 104 102 99 99 100 101 102 105 109 111 113 113 115 117 120 119 116 118 120 120 121 123 123 124 121 114
217 219 211 190 175 154 140 134 133 132 129 126 123 121 120 118 116 114 110 107 102 97 95 101 107 110 109 111 113 116 119 123 121 116 119 120 121 122 123 122 124 124 125 129
193 188 174 157 142 135 131 128 127 126 127 127 123 119 116 115 116 117 115 111 109 105 102 104 107 110 111 113 116 118 119 120 117 117 117 121 126 122 124 127 127 128 129 132
164 157 146 138 134 132 127 123 123 123 124 123 120 117 117 118 120 119 114 106 101 106 115 116 117 112 115 119 125 122 123 123 123 125 129 132 128 128 130 129 129 129 128 128
141 136 135 132 127 124 125 126 127 126 126 126 124 123 122 122 121 119 116 108 106 114 119 121 121 121 120 124 132 121 122 122 123 125 127 128 128 129 128 128 129 131 133 134
127 127 126 125 122 118 119 121 123 124 124 123 123 123 122 120 117 111 103 109 120 128 131 124 116 107 117 134 125 120 122 123 123 124 126 128 131 132 135 137 139 139 138 136
121 122 121 121 119 117 116 117 119 120 120 121 124 124 122 119 121 121 118 120 126 127 119 106 106 113 129 132 119 123 124 127 128 130 133 136 139 141 143 146 145 144 143 146
115 114 114 115 115 115 113 112 113 114 115 116 118 120 121 121 118 111 109 107 105 112 108 108 118 127 154 129 124 126 127 132 138 142 140 140 144 146 148 151 151 150 153 161
110 112 114 117 116 114 115 118 119 119 117 115 117 119 117 113 113 113 116 117 119 120 119 122 132 154 156 123 124 125 130 130 130 132 136 140 146 147 152 156 158 162 166 171
109 112 113 113 114 120 124 125 123 123 123 122 119 118 115 114 115 118 121 125 125 125 128 136 146 167 144 132 132 138 137 138 148 155 146 150 154 156 158 158 166 176 178 182
103 106 110 111 114 117 119 120 121 123 124 123 122 121 121 121 121 124 127 132 136 137 137 144 150 152 145 144 142 145 144 145 149 151 154 158 163 167 163 169 180 185 199 197